Weather History for KUZA - January, 2013

Change the Weather History Date:

Saturday, January 5, 2013

  Actual Average (WUND) Record (WUND)
Temperature  
Mean Temperature 37 °F -  
Max Temperature 50 °F - - (-1)
Min Temperature 24 °F - - (-1)
Degree Days  
Heating Degree Days 28    
Moisture  
Dew Point 25 °F    
Average Humidity 63    
Maximum Humidity 88    
Minimum Humidity 35    
Precipitation  
Precipitation 0.00 in - - ()
Sea Level Pressure  
Sea Level Pressure 30.34 in    
Wind  
Wind Speed 1 mph (SSW)    
Max Wind Speed 7 mph    
Max Gust Speed -    
Visibility 10 miles    
Events Rain    
Averages and records for this station are not official NWS values.
T = Trace of Precipitation, MM = Missing Value Source: NWS Daily Summary

Daily Weather History Graph

Daily Weather History Graph

Search for Another Location

Airport or City:

Trip Planner

Search our weather history database for the weather conditions in past years. The results will help you decide how hot, cold, wet, or windy it might be!

Date:

Astronomy

Jan. 05, 2013 Rise Set
Actual Time 7:32 AM EST 5:27 PM EST
Civil Twilight 7:04 AM EST 5:54 PM EST
Nautical Twilight 6:33 AM EST 6:26 PM EST
Astronomical Twilight 6:02 AM EST 6:57 PM EST
Moon 12:45 AM EST (1/5) 12:09 PM EST (1/5)
Length of Visible Light 10h 50m
Length of Day
9h 54m
Last Quarter, 44% of the Moon is Illuminated
Jan 5
Last Quarter
Jan 11
New
Jan 18
First Quarter
Jan 26
Full
Feb 3
Last Quarter

Hourly Weather History & Observations

Time (EST) Temp. Windchill Dew Point Humidity Pressure Visibility Wind Dir Wind Speed Gust Speed Precip Events Conditions
12:54 AM 34.0 °F - 21.0 °F 59% 30.34 in 10.0 mi Calm Calm - N/A   Clear
1:54 AM 27.0 °F - 19.9 °F 75% 30.35 in 10.0 mi Calm Calm - N/A   Clear
2:54 AM 25.0 °F - 19.9 °F 81% 30.36 in 10.0 mi Calm Calm - N/A   Clear
3:54 AM 27.0 °F - 21.0 °F 78% 30.35 in 10.0 mi Calm Calm - N/A   Clear
4:54 AM 25.0 °F - 21.0 °F 85% 30.35 in 10.0 mi Calm Calm - N/A   Clear
5:54 AM 25.0 °F - 21.0 °F 85% 30.35 in 10.0 mi Calm Calm - N/A   Clear
6:54 AM 24.1 °F - 21.0 °F 88% 30.37 in 10.0 mi Calm Calm - N/A   Clear
7:54 AM 24.1 °F - 21.0 °F 88% 30.40 in 10.0 mi Calm Calm - N/A   Clear
8:54 AM 32.0 °F - 28.0 °F 85% 30.42 in 10.0 mi Calm Calm - N/A   Clear
9:54 AM 37.9 °F 35.5 °F 25.0 °F 60% 30.43 in 10.0 mi South 3.5 mph - N/A   Clear
10:54 AM 42.1 °F 40.2 °F 21.9 °F 45% 30.41 in 10.0 mi Variable 3.5 mph - N/A   Clear
11:54 AM 46.0 °F - 23.0 °F 40% 30.39 in 10.0 mi Calm Calm - N/A   Clear
12:54 PM 48.0 °F - 21.9 °F 36% 30.34 in 10.0 mi SE 5.8 mph - N/A   Clear
1:54 PM 48.9 °F - 21.9 °F 35% 30.32 in 10.0 mi Variable 4.6 mph - N/A   Clear
2:54 PM 50.0 °F - 23.0 °F 35% 30.32 in 10.0 mi WSW 6.9 mph - N/A   Clear
3:54 PM 48.9 °F - 23.0 °F 36% 30.32 in 10.0 mi WSW 4.6 mph - N/A   Clear
4:54 PM 48.0 °F - 25.0 °F 41% 30.31 in 10.0 mi SW 4.6 mph - N/A   Clear
5:54 PM 43.0 °F - 28.0 °F 56% 30.32 in 10.0 mi Calm Calm - N/A   Clear
6:54 PM 41.0 °F - 30.0 °F 65% 30.32 in 10.0 mi Calm Calm - N/A   Clear
7:54 PM 41.0 °F - 30.0 °F 65% 30.33 in 10.0 mi Calm Calm - N/A   Clear
8:54 PM 42.1 °F 40.2 °F 30.9 °F 65% 30.32 in 10.0 mi South 3.5 mph - N/A   Overcast
9:54 PM 42.1 °F 38.4 °F 32.0 °F 67% 30.33 in 10.0 mi SW 5.8 mph - 0.00 in Rain Light Rain
10:54 PM 43.0 °F 41.3 °F 33.1 °F 68% 30.28 in 10.0 mi SSE 3.5 mph - 0.00 in Rain Light Rain
11:54 PM 43.0 °F 41.3 °F 32.0 °F 65% 30.25 in 10.0 mi SSW 3.5 mph - 0.00 in Rain Light Rain